CW4226 Weather Reports


Display with metric or nautical units.
time (UTC)temp
F
wind
direction
speed
MPH
gust
MPH
rain 1hr
in
rain 24hr
in
rain mn
in
humidity
%
barometer
mb
20260509200656 52 47 1.0 2.0 0.00 0.26 0.26 85 1005.1
20260509200151 52 38 0.0 2.0 0.00 0.26 0.26 88 1005.0
20260509195648 52 50 1.0 2.0 0.00 0.26 0.26 87 1005.1
20260509195143 52 231 1.0 3.0 0.00 0.26 0.26 85 1005.0
20260509194643 52 49 1.0 2.0 0.00 0.26 0.26 85 1005.2
20260509194557 52 233 1.0 7.0 0.01 0.25 0.25 85 1004.2
20260509194140 52 57 4.0 4.0 0.00 0.26 0.26 86 1005.3
20260509193636 52 302 0.0 4.0 0.00 0.26 0.26 86 1005.4
20260509193131 52 208 1.0 6.0 0.00 0.26 0.26 86 1005.3
20260509193058 52 233 2.0 7.0 0.01 0.25 0.25 86 1004.4
20260509192628 52 42 2.0 5.0 0.00 0.26 0.26 88 1005.4
20260509192124 52 320 0.0 2.0 0.00 0.26 0.26 87 1005.4
20260509191623 52 260 2.0 3.0 0.00 0.26 0.26 87 1005.8
20260509191556 52 237 1.0 9.0 0.01 0.25 0.25 87 1004.6
20260509191121 52 73 4.0 4.0 0.02 0.26 0.26 88 1005.7
20260509190617 51 249 0.0 4.0 0.02 0.26 0.26 87 1005.8
20260509190115 51 224 0.0 4.0 0.02 0.26 0.26 88 1005.5
20260509185612 52 228 1.0 2.0 0.02 0.26 0.26 87 1005.6
20260509185108 52 243 9.0 10.0 0.02 0.26 0.26 87 1005.7
20260509184606 52 235 2.0 7.0 0.00 0.25 0.25 86 1006.0
20260509184557 52 221 3.0 10.0 0.00 0.24 0.24 85 1004.8
20260509184103 52 66 0.0 7.0 0.00 0.25 0.25 86 1005.6
20260509183558 52 234 2.0 3.0 0.00 0.25 0.25 89 1005.8
20260509183057 52 288 2.0 3.0 0.01 0.24 0.24 86 1004.8
20260509183054 52 49 2.0 4.0 0.00 0.25 0.25 87 1005.6
20260509182551 52 224 1.0 5.0 0.00 0.25 0.25 87 1005.9
20260509182047 52 56 2.0 3.0 0.00 0.25 0.25 87 1005.8
20260509181556 52 86 2.0 14.0 0.01 0.24 0.24 86 1004.7
20260509181546 51 76 0.0 5.0 0.02 0.25 0.25 87 1005.6
20260509181042 51 232 4.0 17.0 0.02 0.25 0.25 85 1005.6
20260509180538 51 255 1.0 5.0 0.02 0.25 0.25 88 1005.4
20260509180056 52 205 2.0 7.0 0.02 0.24 0.24 86 1004.6
20260509180036 51 65 3.0 4.0 0.02 0.25 0.25 87 1005.4
20260509175531 51 75 2.0 6.0 0.00 0.24 0.24 87 1005.6
20260509175028 52 34 2.0 4.0 0.00 0.24 0.24 90 1005.6
20260509174526 51 249 1.0 3.0 0.00 0.24 0.24 88 1005.6
20260509174020 51 82 3.0 4.0 0.00 0.24 0.24 87 1005.7
20260509173514 51 46 1.0 7.0 0.02 0.24 0.24 88 1005.5
20260509173057 51 179 2.0 7.0 0.01 0.23 0.23 88 1004.7
20260509173011 51 86 0.0 4.0 0.05 0.24 0.24 88 1005.4
20260509172508 51 253 0.0 4.0 0.02 0.24 0.24 88 1005.7
20260509172004 51 222 2.0 4.0 0.02 0.24 0.24 89 1005.6
20260509171500 51 223 1.0 12.0 0.02 0.24 0.24 88 1005.7
20260509170956 51 247 2.0 5.0 0.00 0.23 0.23 89 1005.6
20260509170452 51 243 3.0 4.0 0.02 0.23 0.23 89 1005.7
20260509170056 51 262 1.0 6.0 0.02 0.23 0.22 90 1004.8
20260509165948 51 15 2.0 4.0 0.02 0.23 0.23 89 1005.7
20260509165447 51 282 2.0 7.0 0.00 0.23 0.23 90 1005.6
20260509164943 51 54 0.0 3.0 0.00 0.23 0.23 92 1005.9
20260509164557 51 235 0.0 6.0 0.02 0.24 0.22 92 1004.8
20260509164439 51 61 2.0 2.0 0.00 0.23 0.23 91 1005.7
20260509163935 51 252 2.0 3.0 0.02 0.23 0.23 92 1005.8
20260509163433 50 66 2.0 9.0 0.05 0.23 0.23 91 1005.8
20260509163057 50 234 1.0 3.0 0.03 0.27 0.22 94 1005.0
20260509162931 50 35 0.0 4.0 0.02 0.22 0.22 93 1006.0
20260509162431 50 60 3.0 4.0 0.02 0.22 0.22 94 1005.9
20260509161926 50 36 1.0 3.0 0.05 0.22 0.22 94 1005.9
20260509161557 50 231 1.0 2.0 0.03 0.28 0.21 95 1005.1
20260509161422 50 212 0.0 2.0 0.05 0.22 0.22 94 1006.0
20260509160918 50 70 0.0 3.0 0.02 0.21 0.21 94 1006.0
20260509160414 50 42 1.0 2.0 0.00 0.21 0.21 95 1006.1
20260509160056 50 264 0.0 3.0 0.02 0.27 0.20 96 1005.2
20260509155909 50 44 2.0 2.0 0.02 0.21 0.21 95 1006.1
20260509155406 50 34 0.0 2.0 0.02 0.20 0.20 95 1006.1
20260509154902 50 76 2.0 2.0 0.02 0.20 0.20 95 1006.2
20260509154359 50 46 2.0 2.0 0.02 0.20 0.20 95 1006.6
20260509153855 50 45 2.0 2.0 0.02 0.20 0.20 95 1006.4
20260509153353 50 47 2.0 3.0 0.02 0.20 0.20 95 1006.3
20260509153056 50 5 0.0 1.0 0.03 0.26 0.19 96 1005.5
20260509152850 50 62 1.0 2.0 0.05 0.20 0.20 95 1006.4
20260509152346 50 65 1.0 3.0 0.05 0.19 0.19 95 1006.8
20260509151843 50 44 3.0 4.0 0.02 0.19 0.19 95 1006.6
20260509151556 50 355 0.0 0.0 0.03 0.25 0.18 96 1005.7
20260509151339 50 60 2.0 2.0 0.05 0.19 0.19 95 1006.8
20260509150838 50 36 2.0 3.0 0.05 0.18 0.18 95 1006.7
20260509150335 49 47 2.0 3.0 0.05 0.18 0.18 95 1006.7
20260509145832 49 67 2.0 2.0 0.05 0.18 0.18 95 1006.9
20260509145327 49 36 1.0 2.0 0.02 0.17 0.17 95 1006.7
20260509144824 49 39 2.0 3.0 0.02 0.17 0.17 96 1006.9
20260509144556 49 281 0.0 2.0 0.02 0.24 0.17 97 1005.9
20260509144321 49 63 0.0 2.0 0.02 0.17 0.17 96 1006.8
20260509143818 49 64 2.0 3.0 0.02 0.17 0.17 96 1006.8
20260509143315 49 56 2.0 3.0 0.02 0.16 0.16 96 1006.9
20260509143057 49 281 0.0 0.0 0.02 0.23 0.16 97 1006.0
20260509142811 49 73 1.0 3.0 0.02 0.16 0.16 96 1006.8
20260509142307 49 63 2.0 3.0 0.00 0.16 0.16 96 1007.0
20260509141803 49 46 1.0 2.0 0.02 0.16 0.16 96 1007.1
20260509141300 49 51 1.0 2.0 0.02 0.16 0.16 96 1006.8
20260509140757 48 54 2.0 2.0 0.02 0.15 0.15 97 1007.0
20260509140254 48 78 2.0 3.0 0.02 0.15 0.15 97 1006.8
20260509140056 48 281 0.0 1.0 0.02 0.22 0.15 97 1005.9
20260509135752 48 62 1.0 3.0 0.00 0.15 0.15 97 1007.0
20260509135249 48 57 2.0 3.0 0.02 0.15 0.15 97 1006.8
20260509134746 48 74 2.0 3.0 0.02 0.15 0.15 97 1006.9
20260509134243 48 59 1.0 2.0 0.02 0.15 0.15 97 1006.7
20260509133740 48 60 2.0 3.0 0.02 0.15 0.15 97 1006.8
20260509133237 48 50 3.0 3.0 0.00 0.14 0.14 97 1006.9
20260509133057 48 281 0.0 1.0 0.02 0.22 0.14 97 1005.8
20260509132736 48 42 2.0 3.0 0.02 0.14 0.14 97 1006.7
20260509132234 48 52 3.0 3.0 0.02 0.14 0.14 97 1006.6
20260509131730 48 54 2.0 2.0 0.00 0.14 0.14 97 1006.8
20260509131557 48 281 0.0 1.0 0.02 0.22 0.14 97 1005.8
20260509131227 48 40 1.0 2.0 0.02 0.14 0.14 97 1006.4
20260509130723 48 41 1.0 2.0 0.02 0.14 0.14 97 1006.6
20260509130219 48 34 2.0 2.0 0.00 0.13 0.13 97 1006.7
20260509125715 47 59 3.0 3.0 0.02 0.13 0.13 97 1006.3
20260509125213 47 43 1.0 2.0 0.02 0.13 0.13 97 1006.8
20260509124709 47 46 2.0 3.0 0.02 0.13 0.13 97 1006.8
20260509124556 47 281 0.0 1.0 0.02 0.21 0.13 97 1005.8
20260509124206 47 76 2.0 2.0 0.02 0.13 0.13 97 1006.9
20260509123704 47 69 2.0 2.0 0.02 0.13 0.13 97 1006.9
20260509123201 47 62 3.0 3.0 0.02 0.12 0.12 97 1006.8
20260509123057 47 281 0.0 1.0 0.01 0.20 0.12 97 1005.9
20260509122656 47 35 2.0 2.0 0.05 0.12 0.12 97 1006.8
20260509122153 47 51 2.0 3.0 0.02 0.12 0.12 97 1006.7
20260509121650 47 71 2.0 2.0 0.02 0.11 0.11 97 1006.9
20260509121556 47 281 0.0 1.0 0.01 0.20 0.12 97 1006.0
20260509121148 47 78 3.0 4.0 0.02 0.11 0.11 97 1006.8
20260509120646 47 53 0.0 2.0 0.02 0.11 0.11 97 1006.9
20260509120143 47 98 1.0 2.0 0.02 0.11 0.11 97 1006.8
20260509120057 47 281 0.0 1.0 0.00 0.19 0.11 97 1005.9
20260509115641 47 39 3.0 3.0 0.00 0.11 0.11 97 1006.9
20260509115138 47 49 2.0 3.0 0.00 0.11 0.11 97 1006.8
20260509114636 46 54 2.0 3.0 0.00 0.11 0.11 97 1007.0
20260509114557 47 281 0.0 1.0 0.00 0.19 0.11 97 1005.9
20260509114135 47 69 3.0 3.0 0.00 0.11 0.11 97 1006.9
20260509113633 46 59 2.0 2.0 0.00 0.11 0.11 97 1007.0
20260509113130 46 68 2.0 3.0 0.00 0.11 0.11 97 1007.0
20260509113057 47 281 0.0 1.0 0.00 0.19 0.11 97 1005.9
20260509112626 46 55 2.0 3.0 0.00 0.11 0.11 97 1006.9
20260509112124 46 65 2.0 3.0 0.00 0.11 0.11 97 1007.0
20260509111620 46 76 0.0 2.0 0.00 0.11 0.11 97 1007.2
20260509111556 46 281 0.0 1.0 0.00 0.19 0.11 97 1006.3
20260509111117 46 66 2.0 3.0 0.00 0.11 0.11 97 1007.2
20260509110614 46 70 2.0 2.0 0.00 0.11 0.11 97 1007.2
20260509110112 46 49 2.0 2.0 0.00 0.11 0.11 97 1007.2
20260509110057 46 281 0.0 0.0 0.00 0.19 0.11 97 1006.2
20260509105610 46 60 2.0 2.0 0.00 0.11 0.11 97 1007.0
20260509105107 46 63 2.0 2.0 0.00 0.11 0.11 97 1007.3
20260509104603 46 55 2.0 2.0 0.00 0.11 0.11 97 1007.3
20260509104556 46 281 0.0 0.0 0.01 0.19 0.11 96 1006.2
20260509104100 46 54 1.0 2.0 0.00 0.11 0.11 97 1007.3
20260509103558 46 49 2.0 2.0 0.00 0.11 0.11 97 1007.1
20260509103056 46 34 0.0 2.0 0.00 0.11 0.11 97 1007.1
20260509102553 46 57 1.0 2.0 0.00 0.11 0.11 97 1007.1
20260509102050 46 62 2.0 2.0 0.00 0.11 0.11 97 1007.1
20260509101546 46 66 2.0 2.0 0.00 0.11 0.11 97 1007.0
20260509101043 46 69 2.0 2.0 0.00 0.11 0.11 97 1006.9
20260509100540 46 59 2.0 2.0 0.00 0.11 0.11 97 1007.1
20260509100055 46 281 0.0 1.0 0.02 0.19 0.11 96 1006.1
20260509100038 46 65 2.0 2.0 0.02 0.11 0.11 97 1007.1
20260509095534 46 46 2.0 2.0 0.02 0.11 0.11 97 1007.4
20260509095032 46 61 2.0 2.0 0.02 0.10 0.10 97 1007.4
20260509094557 46 281 0.0 1.0 0.01 0.18 0.10 96 1006.4
20260509094528 46 68 2.0 2.0 0.02 0.10 0.10 97 1007.4
20260509094025 46 47 1.0 2.0 0.02 0.10 0.10 97 1007.6
20260509093523 46 49 1.0 2.0 0.02 0.10 0.10 97 1007.1
20260509093021 46 66 0.0 1.0 0.00 0.09 0.09 97 1007.1
20260509092518 46 60 0.0 2.0 0.00 0.09 0.09 97 1007.2
20260509092017 46 58 1.0 2.0 0.00 0.09 0.09 97 1007.1
20260509091514 46 65 2.0 2.0 0.00 0.09 0.09 97 1007.3
20260509091010 46 44 0.0 1.0 0.00 0.09 0.09 97 1007.3
20260509090508 46 60 2.0 2.0 0.00 0.09 0.09 97 1007.3
20260509090056 46 281 0.0 1.0 0.00 0.17 0.09 96 1006.4
20260509090006 46 50 2.0 2.0 0.00 0.09 0.09 97 1007.3
20260509085502 46 46 2.0 2.0 0.00 0.09 0.09 96 1007.3
20260509084958 46 66 2.0 2.0 0.00 0.09 0.09 96 1007.4
20260509084556 46 281 0.0 1.0 0.01 0.17 0.09 96 1006.3
20260509084455 45 69 2.0 2.0 0.00 0.09 0.09 96 1007.4
20260509083953 45 67 1.0 2.0 0.02 0.09 0.09 96 1007.2
20260509083450 45 47 2.0 3.0 0.02 0.09 0.09 96 1007.4
20260509083057 46 281 0.0 0.0 0.01 0.17 0.09 95 1006.4
20260509082946 45 71 2.0 2.0 0.02 0.09 0.09 96 1007.6
20260509082444 45 62 1.0 3.0 0.02 0.09 0.09 96 1007.7
20260509081941 45 68 2.0 2.0 0.00 0.09 0.09 96 1007.6
20260509081557 46 281 0.0 1.0 0.02 0.17 0.09 95 1006.8
20260509081438 45 64 1.0 2.0 0.00 0.09 0.09 96 1007.7
20260509080935 46 56 2.0 2.0 0.00 0.09 0.09 96 1007.6
20260509080433 46 56 2.0 2.0 0.00 0.09 0.09 96 1007.5
20260509080056 46 281 0.0 0.0 0.04 0.17 0.09 95 1006.4
20260509075931 46 55 2.0 2.0 0.02 0.09 0.09 96 1007.6
20260509075428 46 57 1.0 2.0 0.02 0.09 0.09 96 1007.9
20260509074926 46 62 0.0 2.0 0.02 0.08 0.08 96 1007.8
20260509074423 46 59 2.0 3.0 0.02 0.08 0.08 96 1007.8
20260509073919 46 55 2.0 2.0 0.02 0.08 0.08 96 1007.9
20260509073415 46 57 2.0 3.0 0.02 0.08 0.08 96 1007.8
20260509073057 46 281 0.0 0.0 0.06 0.16 0.08 95 1006.8
20260509072912 46 64 2.0 2.0 0.02 0.07 0.07 95 1007.8
20260509072409 46 67 2.0 2.0 0.05 0.07 0.07 95 1007.9
20260509071905 46 60 2.0 2.0 0.07 0.07 0.07 95 1008.0
20260509071557 46 281 0.0 1.0 0.05 0.15 0.07 95 1006.9
20260509071402 46 70 2.0 3.0 0.07 0.07 0.07 95 1008.1
20260509070900 46 55 2.0 2.0 0.05 0.06 0.06 95 1008.3
20260509070356 45 58 2.0 2.0 0.05 0.06 0.06 95 1008.2
20260509070056 46 281 0.0 1.0 0.04 0.13 0.05 94 1007.1
20260509065852 45 55 2.0 2.0 0.07 0.05 0.05 95 1008.0
20260509065349 45 58 2.0 2.0 0.07 0.05 0.05 95 1007.9
20260509064844 45 68 2.0 2.0 0.07 0.04 0.04 95 1008.0
20260509064556 46 281 0.0 0.0 0.03 0.12 0.04 94 1007.0
20260509064342 45 62 2.0 3.0 0.05 0.03 0.03 94 1008.0
20260509063840 46 60 2.0 2.0 0.02 0.03 0.03 94 1008.2
20260509063336 46 64 2.0 3.0 0.02 0.02 0.02 94 1008.3
20260509063057 46 281 0.0 1.0 0.01 0.10 0.02 93 1007.3
20260509062833 46 59 2.0 2.0 0.05 0.02 0.02 94 1008.4
20260509062330 46 65 1.0 2.0 0.02 0.02 0.02 94 1008.4
20260509061827 46 64 2.0 3.0 0.02 0.02 0.02 94 1008.5
20260509061326 46 59 2.0 2.0 0.02 0.02 0.02 94 1008.6
20260509060822 46 58 2.0 2.0 0.02 0.01 0.01 94 1008.4
20260509060319 45 55 3.0 3.0 0.02 0.01 0.01 93 1008.5
20260509060057 46 281 0.0 1.0 0.01 0.09 0.01 92 1007.5
20260509055814 45 60 2.0 3.0 0.02 0.01 0.01 93 1008.6
20260509055310 45 62 2.0 2.0 0.00 0.00 0.00 93 1008.7
20260509054808 45 57 2.0 2.0 0.00 0.00 0.00 93 1008.8
20260509054304 45 55 2.0 2.0 0.00 0.00 0.00 92 1008.2
20260509053802 45 38 0.0 2.0 0.00 0.00 0.00 92 1008.0
20260509053259 45 57 2.0 2.0 0.02 0.00 0.00 92 1008.0
20260509053057 46 281 0.0 1.0 0.01 0.09 0.01 91 1007.0
20260509052757 45 56 2.0 2.0 0.02 0.00 0.00 92 1008.1
20260509052254 45 64 2.0 2.0 0.00 0.00 0.00 91 1008.0
20260509051752 45 52 0.0 2.0 0.00 0.00 0.00 91 1008.0
20260509051556 46 281 0.0 1.0 0.00 0.08 0.00 90 1007.0
20260509051250 46 50 2.0 3.0 0.00 0.00 0.00 91 1008.2
20260509050746 46 54 1.0 2.0 0.00 0.00 0.00 91 1008.1
20260509050243 46 68 2.0 3.0 0.00 0.00 0.00 91 1008.0
20260509050057 46 281 0.0 1.0 0.00 0.08 0.00 90 1007.2
20260509045740 46 63 2.0 2.0 0.00 0.00 0.00 90 1008.0
20260509045237 46 48 2.0 3.0 0.00 0.00 0.00 90 1008.1
20260509044734 46 67 3.0 3.0 0.00 0.00 0.00 90 1008.1
20260509044557 46 281 0.0 1.0 0.00 0.08 0.00 90 1007.2
20260509044232 46 73 3.0 3.0 0.00 0.00 0.00 90 1008.0
20260509043728 46 70 2.0 3.0 0.00 0.00 0.00 90 1007.8
20260509043224 46 59 2.0 2.0 0.00 0.00 0.00 90 1008.0
20260509043056 46 281 0.0 1.0 0.00 0.12 0.00 90 1007.2
20260509042720 46 65 2.0 2.0 0.00 0.00 0.00 90 1008.2
20260509042217 46 56 1.0 2.0 0.00 0.00 0.00 90 1008.1
20260509041714 46 57 2.0 2.0 0.00 0.00 0.00 90 1008.2
20260509041556 46 281 0.0 1.0 0.00 0.13 0.00 90 1007.4
20260509041211 46 47 2.0 2.0 0.00 0.00 0.00 90 1008.3
20260509040709 46 58 2.0 3.0 0.00 0.00 0.00 90 1008.4
20260509040205 46 63 2.0 3.0 0.00 0.00 0.00 91 1008.3
20260509040057 46 281 0.0 1.0 0.00 0.17 0.00 91 1007.5
20260509035702 45 64 1.0 3.0 0.00 0.17 0.17 91 1008.4
20260509035159 45 62 2.0 2.0 0.00 0.17 0.17 91 1008.5
20260509034657 45 49 2.0 3.0 0.00 0.17 0.17 91 1008.4
20260509034556 46 281 0.0 1.0 0.00 0.20 0.17 91 1007.5
20260509034153 45 46 3.0 3.0 0.00 0.17 0.17 91 1008.5
20260509033651 45 62 0.0 3.0 0.00 0.17 0.17 91 1008.1
20260509033147 45 68 3.0 3.0 0.00 0.17 0.17 91 1008.4
20260509033057 45 281 0.0 1.0 0.00 0.25 0.17 90 1007.5
20260509032645 44 55 2.0 3.0 0.00 0.17 0.17 91 1008.5
20260509032142 44 56 2.0 3.0 0.00 0.17 0.17 91 1008.4
20260509031639 44 55 1.0 3.0 0.00 0.17 0.17 91 1008.3
20260509031136 44 67 2.0 3.0 0.00 0.17 0.17 90 1008.2
20260509030635 44 56 2.0 2.0 0.00 0.17 0.17 90 1008.4
20260509030132 45 61 2.0 3.0 0.00 0.17 0.17 90 1008.4
20260509030056 46 281 0.0 0.0 0.00 0.25 0.17 87 1007.6
20260509025627 45 64 1.0 2.0 0.00 0.17 0.17 89 1008.4
20260509025123 45 61 2.0 3.0 0.00 0.17 0.17 89 1008.4
20260509024619 45 59 2.0 2.0 0.00 0.17 0.17 89 1008.5
20260509024556 46 281 0.0 1.0 0.00 0.25 0.17 86 1007.5
20260509024115 45 46 2.0 2.0 0.00 0.17 0.17 89 1008.5
20260509023614 45 64 2.0 3.0 0.00 0.17 0.17 88 1008.3
20260509023110 45 55 2.0 2.0 0.00 0.17 0.17 88 1008.4
20260509023057 47 281 0.0 0.0 0.00 0.25 0.17 85 1007.5
20260509022606 46 65 1.0 2.0 0.00 0.17 0.17 87 1008.3
20260509022104 46 59 2.0 2.0 0.00 0.17 0.17 86 1008.3
20260509021601 46 49 2.0 3.0 0.00 0.17 0.17 85 1008.2
20260509021556 48 281 0.0 0.0 0.00 0.25 0.17 83 1007.5
20260509021058 46 47 2.0 2.0 0.00 0.17 0.17 85 1008.4
20260509020557 47 55 2.0 3.0 0.00 0.17 0.17 85 1008.3
20260509020053 47 77 2.0 3.0 0.00 0.17 0.17 84 1008.3
20260509015552 47 46 0.0 2.0 0.00 0.17 0.17 83 1008.4
20260509015049 48 62 2.0 2.0 0.00 0.17 0.17 82 1008.2
20260509014557 49 281 0.0 0.0 0.00 0.25 0.17 80 1007.4
20260509014545 48 60 2.0 2.0 0.00 0.17 0.17 81 1008.2
20260509014042 48 55 2.0 3.0 0.00 0.17 0.17 81 1008.0
20260509013539 48 59 2.0 2.0 0.00 0.17 0.17 81 1008.2
20260509013034 49 54 2.0 3.0 0.00 0.17 0.17 80 1008.2
20260509012531 49 56 2.0 2.0 0.00 0.17 0.17 80 1008.1
20260509012028 49 57 2.0 2.0 0.00 0.17 0.17 80 1008.2
20260509011526 49 58 2.0 2.0 0.00 0.17 0.17 80 1008.2
20260509011023 49 57 2.0 3.0 0.00 0.17 0.17 81 1008.0
20260509010521 49 57 2.0 2.0 0.00 0.17 0.17 80 1008.0
20260509010056 49 281 0.0 1.0 0.00 0.25 0.17 79 1007.1
20260509010017 49 52 2.0 2.0 0.00 0.17 0.17 79 1007.9
20260509005515 49 52 2.0 2.0 0.00 0.17 0.17 79 1008.0
20260509005015 49 55 1.0 2.0 0.00 0.17 0.17 79 1007.7
20260509004556 49 281 0.0 1.0 0.00 0.25 0.17 78 1006.9
20260509004512 49 48 1.0 2.0 0.00 0.17 0.17 78 1007.6
20260509004009 49 51 1.0 2.0 0.00 0.17 0.17 78 1007.5
20260509003508 49 56 1.0 2.0 0.00 0.17 0.17 78 1007.5
20260509003056 50 281 0.0 1.0 0.00 0.25 0.17 77 1006.5
20260509003004 49 51 2.0 2.0 0.00 0.17 0.17 77 1007.3
20260509002503 49 40 1.0 2.0 0.00 0.17 0.17 77 1007.4
20260509001959 50 56 2.0 3.0 0.00 0.17 0.17 76 1007.3
20260509001556 50 281 0.0 1.0 0.00 0.25 0.17 76 1006.6
20260509001455 50 49 2.0 2.0 0.00 0.17 0.17 76 1007.3
20260509000952 50 54 2.0 3.0 0.00 0.17 0.17 75 1007.4
20260509000451 50 53 2.0 3.0 0.00 0.17 0.17 76 1007.5
20260509000055 50 274 0.0 1.0 0.00 0.25 0.17 76 1006.7
20260508235946 50 38 0.0 2.0 0.00 0.17 0.17 76 1007.5
20260508235444 50 61 2.0 2.0 0.00 0.17 0.17 77 1007.7
20260508234940 50 52 2.0 2.0 0.00 0.17 0.17 76 1007.6
20260508234556 50 274 0.0 0.0 0.00 0.25 0.17 76 1006.7
20260508234437 50 52 1.0 2.0 0.00 0.17 0.17 75 1007.4
20260508233935 50 51 2.0 2.0 0.00 0.17 0.17 76 1007.4
20260508233434 50 65 2.0 2.0 0.00 0.17 0.17 75 1007.3
20260508233057 50 274 0.0 2.0 0.00 0.25 0.17 74 1006.5
20260508232930 50 23 0.0 2.0 0.00 0.17 0.17 74 1007.1
20260508232428 50 57 0.0 2.0 0.00 0.17 0.17 75 1007.3
20260508231925 50 37 0.0 2.0 0.00 0.17 0.17 75 1007.1
20260508231557 51 221 0.0 3.0 0.00 0.25 0.17 74 1006.2
20260508231422 50 32 1.0 2.0 0.00 0.17 0.17 74 1007.0
20260508230919 51 76 1.0 2.0 0.00 0.17 0.17 72 1007.1
20260508230415 51 82 0.0 3.0 0.00 0.17 0.17 72 1006.9
20260508230057 51 277 0.0 2.0 0.00 0.25 0.17 73 1006.2
20260508225912 51 50 1.0 2.0 0.00 0.17 0.17 73 1006.9
20260508225409 51 47 2.0 3.0 0.00 0.17 0.17 72 1007.2
20260508224907 51 52 1.0 2.0 0.00 0.17 0.17 72 1007.0
20260508224557 52 263 1.0 2.0 0.00 0.25 0.17 72 1006.4
20260508224404 51 36 0.0 2.0 0.00 0.17 0.17 71 1007.3
20260508223902 52 26 1.0 2.0 0.00 0.17 0.17 71 1006.8
20260508223359 52 35 0.0 2.0 0.00 0.17 0.17 70 1007.1
20260508222856 52 48 2.0 3.0 0.00 0.17 0.17 68 1007.0
20260508222353 52 25 2.0 3.0 0.00 0.17 0.17 68 1007.0
20260508221850 52 34 0.0 2.0 0.00 0.17 0.17 66 1007.1
20260508221557 52 235 2.0 3.0 0.00 0.25 0.17 65 1006.3
20260508221345 53 218 0.0 2.0 0.00 0.17 0.17 63 1007.2
20260508220842 52 32 1.0 2.0 0.00 0.17 0.17 62 1007.1
20260508220339 52 240 0.0 2.0 0.00 0.17 0.17 68 1007.1
20260508220056 51 233 1.0 3.0 0.00 0.25 0.17 69 1006.4
20260508215835 52 40 0.0 2.0 0.00 0.17 0.17 67 1007.2
20260508215332 51 240 1.0 2.0 0.00 0.17 0.17 69 1007.0
20260508214829 51 280 2.0 4.0 0.00 0.17 0.17 71 1007.1
20260508214556 51 231 2.0 10.0 0.00 0.25 0.17 72 1006.4
20260508214326 51 250 2.0 6.0 0.00 0.17 0.17 71 1007.2
20260508213822 50 205 1.0 6.0 0.00 0.17 0.17 74 1007.2
20260508213319 50 225 4.0 5.0 0.00 0.17 0.17 74 1007.1
20260508213057 51 234 3.0 9.0 0.00 0.25 0.17 75 1006.4
20260508212816 50 221 3.0 9.0 0.00 0.17 0.17 72 1007.1
20260508212312 50 196 0.0 8.0 0.00 0.17 0.17 72 1007.5
20260508211808 51 229 8.0 10.0 0.00 0.17 0.17 70 1007.7
20260508211556 52 227 3.0 7.0 0.00 0.25 0.17 69 1006.8
20260508211304 51 227 3.0 9.0 0.00 0.17 0.17 67 1007.6
20260508210802 52 232 2.0 3.0 0.00 0.17 0.17 62 1007.4
20260508210258 53 211 2.0 2.0 0.00 0.17 0.17 62 1007.4
20260508205755 53 243 0.0 2.0 0.00 0.17 0.17 57 1007.3
20260508205251 53 39 1.0 1.0 0.00 0.17 0.17 56 1007.3
20260508204748 53 246 0.0 0.0 0.00 0.17 0.17 61 1007.1
20260508204244 53 60 0.0 1.0 0.00 0.17 0.17 62 1007.2
20260508203740 53 51 1.0 2.0 0.00 0.17 0.17 60 1007.2
20260508203237 54 40 0.0 1.0 0.00 0.17 0.17 57 1007.1
20260508203056 55 160 0.0 1.0 0.00 0.25 0.17 55 1006.4
20260508202732 54 42 0.0 2.0 0.00 0.17 0.17 54 1007.4
20260508202230 56 60 2.0 3.0 0.00 0.17 0.17 52 1007.3
20260508201727 56 49 0.0 3.0 0.00 0.17 0.17 51 1007.3
20260508201557 57 226 1.0 3.0 0.00 0.25 0.17 54 1006.4
20260508201223 59 69 0.0 2.0 0.00 0.17 0.17 52 1007.3